This is the latest recevied weather packets stored in our database for station/object KC8SWY-15. If no packets are shown the sender has not sent any weather packets the latest 10 day(s).
| Time | Temp. | Humidity | Pressure | Rain* | Wind** | Luminosity | Snow |
|---|---|---|---|---|---|---|---|
| 1788543628 | 20.56° C | 94% | 1013.5 hPa | 0.51 mm | - | - | - |
| 1788543328 | 20.56° C | 94% | 1013.6 hPa | 0.51 mm | - | - | - |
| 1788543028 | 20.56° C | 94% | 1013.8 hPa | 1.02 mm | - | - | - |
| 1788542728 | 20.56° C | 94% | 1013.8 hPa | 2.54 mm | - | - | - |
| 1788542428 | 20.56° C | 94% | 1013.8 hPa | 6.6 mm | - | - | - |
| 1788542128 | 20.56° C | 94% | 1013.7 hPa | 7.87 mm | - | - | - |
| 1788541828 | 20.56° C | 94% | 1013.7 hPa | 7.87 mm | - | - | - |
| 1788541528 | 20° C | 94% | 1013.1 hPa | 7.87 mm | - | - | - |
| 1788541277 | 20.56° C | 94% | 1013.7 hPa | 7.62 mm | - | - | - |
| 1788541228 | 20.56° C | 94% | 1013.7 hPa | 7.62 mm | - | - | - |
| 1788540928 | 20.56° C | 94% | 1013.9 hPa | 7.62 mm | - | - | - |
| 1788540628 | 20.56° C | 94% | 1014 hPa | 7.62 mm | - | - | - |
| 1788540361 | 20.56° C | 93% | 1014.7 hPa | 7.62 mm | - | - | - |
| 1788540328 | 20.56° C | 93% | 1014.7 hPa | 7.62 mm | - | - | - |
| 1788540028 | 20.56° C | 93% | 1014.9 hPa | 7.62 mm | - | - | - |
| 1788539728 | 20.56° C | 93% | 1015.3 hPa | 7.62 mm | - | - | - |
| 1788539428 | 21.11° C | 92% | 1015.8 hPa | 7.11 mm | - | - | - |
| 1788539128 | 21.67° C | 92% | 1017 hPa | 5.59 mm | - | - | - |
| 1788538828 | 21.67° C | 92% | 1017.8 hPa | 1.52 mm | - | - | - |
| 1788538528 | 21.67° C | 92% | 1015.4 hPa | 0 mm | - | - | - |
| 1788538235 | 21.67° C | 92% | 1015.1 hPa | 0 mm | - | - | - |
| 1788537928 | 21.67° C | 92% | 1014.6 hPa | 0 mm | - | - | - |
| 1788537628 | 21.67° C | 92% | 1014.7 hPa | 0 mm | - | - | - |
| 1788537328 | 21.67° C | 93% | 1015 hPa | 0 mm | - | - | - |
| 1788537028 | 21.67° C | 93% | 1015.1 hPa | 0 mm | - | - | - |
* Rain latest hour (hover to see other rain measurements)
** Current wind speed in m/s (hover to see current wind gust speed)